Regional Weather Roundup
Issued by NWS

Home | Current Version | Previous Version | Graphics & Text | Print | Product List | Glossary Off
Versions: 1 2 3 4 5 6 7 8 9 10 11 12 13 14 15 16 17 18 19 20 21 22 23 24 25 26 27 28 29 30 31 32 33 34 35 36 37 38 39 40 41 42 43 44 45 46 47 48 49 50

000
ASUS43 KMKX 250400
RWRWI

WISCONSIN REGIONAL WEATHER ROUNDUP
NATIONAL WEATHER SERVICE MILWAUKEE/SULLIVAN WI
1000 PM CST SAT JAN 24 2015

NOTE: "FAIR" INDICATES FEW OR NO CLOUDS BELOW 12,000 FEET WITH NO
SIGNIFICANT WEATHER AND/OR OBSTRUCTIONS TO VISIBILITY.

WIZ001-002-006>008-014>016-023>028-250500-
NORTHWEST WISCONSIN

CITY           SKY/WX    TMP DP  RH WIND       PRES   REMARKS
SUPERIOR ARPT  CLOUDY    26  20  80 E13G22    29.80R WCI  15
ASHLAND        CLOUDY    21  14  74 NE16G23   29.82R WCI   7
HAYWARD        CLOUDY    25  20  81 NE12      29.72R WCI  14
SIREN          CLOUDY    31  26  82 NE10      29.70R WCI  22
CUMBERLAND     CLOUDY    32  28  86 NE10      29.66R WCI  24
RICE LAKE      CLOUDY    33  30  86 N14       29.67R WCI  24
CHETEK         CLOUDY    35  30  83 NE5       29.66R WCI  31
LADYSMITH      CLOUDY    32  28  83 NE13      29.68R WCI  22
EAU CLAIRE     CLOUDY    33  28  81 NE5       29.64R WCI  29
MENOMONIE      CLOUDY    33  31  92 NE3       29.64R
NEW RICHMOND   CLOUDY    35  30  82 E5        29.64R WCI  31
OSCEOLA        CLOUDY    36  31  82 NE7       29.67R WCI  30
$$

WIZ003>005-009-010-017-018-250500-
NORTH CENTRAL WISCONSIN

CITY           SKY/WX    TMP DP  RH WIND       PRES   REMARKS
MANITOWISH WTR CLOUDY    18  15  87 NE7       29.71R WCI   9
ARBOR VITAE    MOCLDY    22  17  81 NE5       29.70R WCI  15
WOODRUFF       MOCLDY    22  17  81 NE5       29.70R WCI  15
RHINELANDER    CLOUDY    22  16  78 NE10      29.70R WCI  11
EAGLE RIVER    MOCLDY    19  13  80 N13       29.70R WCI   5
LAND O LAKES   CLOUDY    17  13  84 NE7       29.73R WCI   7
PHILLIPS       CLOUDY    25  20  80 NE16      29.68R WCI  13
TOMAHAWK       CLOUDY    26  21  80 NE7G17    29.69R WCI  19
MEDFORD        CLOUDY    33  29  85 NE14      29.65R WCI  23
MERRILL        CLOUDY    30  26  83 E9        29.67R WCI  22
$$

WIZ029-030-035-036-043>047-250500-
CENTRAL WISCONSIN

CITY           SKY/WX    TMP DP  RH WIND       PRES   REMARKS
WAUSAU         CLOUDY    32  26  78 E15       29.65R WCI  22
MOSINEE        CLOUDY    32  32 100 NE3       29.65
MARSHFIELD     CLOUDY    33  30  88 CALM      29.64S
STEVENS POINT  CLOUDY    30  29  96 CALM      29.66S
WAUPACA        CLOUDY    33  28  85 E8        29.69R WCI  25
WAUTOMA        NOT AVBL
WISC RAPIDS    CLOUDY    32  28  85 E3        29.66S
CAMP DOUGLAS   NOT AVBL
$$

WIZ011>013-019>022-031-037>040-048>050-250500-
NORTHEAST WISCONSIN

CITY           SKY/WX    TMP DP  RH WIND       PRES   REMARKS
ANTIGO         CLOUDY    27  23  84 NE12      29.68R WCI  17
SHAWANO        CLOUDY    31  25  77 E9        29.72S WCI  23
OCONTO         CLOUDY    26  19  76 NE7       29.76R WCI  18
STURGEON BAY   CLOUDY    21  14  73 NE14G21   29.77R WCI   8
GREEN BAY      CLOUDY    26  20  77 NE20      29.74R WCI  12
MANITOWOC      NOT AVBL
APPLETON       CLOUDY    28  25  86 NE10G21   29.70R WCI  19
CLINTONVILLE   CLOUDY    30  27  86 E7        29.71R WCI  23
OSHKOSH        CLOUDY    31  28  89 NE14      29.68R FOG     WCI  21
$$

WIZ032>034-041-042-053>061-250500-
SOUTHWEST WISCONSIN

CITY           SKY/WX    TMP DP  RH WIND       PRES   REMARKS
LA CROSSE      CLOUDY    33  29  85 W3        29.63S
SPARTA         CLOUDY    32  31  94 E3        29.65S
VIROQUA        CLOUDY    33  32  95 E7        29.61F WCI  27
BOSCOBEL       CLOUDY    34  30  85 NE3       29.63S
PRAIRIE DU CHI MOCLDY    33  30  92 CALM      29.61F
PLATTEVILLE    CLOUDY    35  33  90 E6        29.62S WCI  30
$$

WIZ056-057-062-063-064-067-068-250500-
SOUTH CENTRAL WISCONSIN

CITY           SKY/WX    TMP DP  RH WIND       PRES   REMARKS
REEDSBURG      CLOUDY    32  30  94 E5        29.65S WCI  27
BARABOO/DELLS  CLOUDY    31  29  93 E5        29.65S FOG     WCI  26
LONE ROCK      NOT AVBL
MINERAL POINT  CLOUDY    36  32  87 E5        29.62S WCI  32
MADISON        CLOUDY    31  28  89 NE5       29.66S WCI  26
MIDDLETON      CLOUDY    32  32  99 CALM      29.65F
WATERTOWN      CLOUDY    32  31  97 CALM      29.67R
MONROE         CLOUDY    32  32 100 NE5       29.63S FOG     WCI  27
JANESVILLE     CLOUDY    32  30  93 NE6       29.65F WCI  26
$$

WIZ051-052-058>065-066-070>072-250500-
SOUTHEAST WISCONSIN

CITY           SKY/WX    TMP DP  RH WIND       PRES   REMARKS
MILWAUKEE      CLOUDY    35  29  78 W5        29.68S WCI  31
WAUKESHA       CLOUDY    32  30  93 CALM      29.68S
MILWAUKEE/TIMM CLOUDY    34  30  86 CALM      29.69R
RACINE         CLOUDY    34  29  82 W6        29.69F WCI  29
BURLINGTON     CLOUDY    29  28  96 CALM      29.68R
KENOSHA        CLOUDY    33  30  88 N6        29.68S WCI  28
FOND DU LAC    CLOUDY    33  30  88 MISG      29.67S
SHEBOYGAN      LGT SNOW  30  28  92 NE22G29   29.71R VSB 1   WCI  17
WEST BEND      CLOUDY    32  30  93 CALM      29.67S
JUNEAU         CLOUDY    32  31  95 S3        29.68R
$$

LSZ147-162-250500-
LAKE SUPERIOR

STATION/POSITION TIME  TEMP    WIND        PRES    WAVE
                       AIR SEA DIR/SP/G            HT/PER
                 (UTC) (F)     (DEG/KT/KT) (MB)    (FT/S)
DEVILS ISLAND    0300   21      80/ 22/ 24 1011.1R
PORT WING        0300   24      70/ 15/ 20 1009.1R
SAXON HARBOR     0320   21      80/  9/ 21 1009.5R
$$

LMZ867-665-643>646-250500-
LAKE MICHIGAN

STATION/POSITION TIME  TEMP    WIND        PRES    WAVE
                       AIR SEA DIR/SP/G            HT/PER
                 (UTC) (F)     (DEG/KT/KT) (MB)    (FT/S)
NORTHPORT PIER   0302   23      10/ 18/ 24 1007.8R
SISTER BAY       0313   21     360/ 12/ 19   N/A
KEWAUNEE LAKESHO 0300   28      50/ 18/ 24 1005.6R
SHEBOYGAN LAKESH 0300   33      40/ 22/ 23 1006.3R
PORT WASHINGTON  0340   35        CALM     1006.1R
MILWAUKEE LAKESH 0300   36     280/  6/  8   N/A
KENOSHA   LAKESH 0300   34     320/  8/ 11 1005.4S
$$

TC  - TEMPERATURE IN CELSIUS
VSB - VISIBILITY IN STATUTE MILES
WCI - WIND CHILL INDEX
HX  - HEAT INDEX



USA.gov is the U.S. government's official web portal to all federal, state and local government web resources and services.